TimeEDT,TemperatureF,Dew PointF,Humidity,Sea Level PressureIn,VisibilityMPH,Wind Direction,Wind SpeedMPH,Gust SpeedMPH,PrecipitationIn,Events,Conditions,WindDirDegrees,DateUTC
12:53 AM,61.0,55.9,83,30.25,10.0,Calm,Calm,-,N/A,,Clear,0,2013-06-22 04:53:00
1:53 AM,60.1,57.0,90,30.25,10.0,Calm,Calm,-,N/A,,Clear,0,2013-06-22 05:53:00
2:53 AM,59.0,57.0,93,30.26,10.0,Calm,Calm,-,N/A,,Clear,0,2013-06-22 06:53:00
3:53 AM,57.9,55.0,90,30.25,10.0,Calm,Calm,-,N/A,,Clear,0,2013-06-22 07:53:00
4:53 AM,57.0,55.0,93,30.25,9.0,Calm,Calm,-,N/A,,Clear,0,2013-06-22 08:53:00
5:53 AM,57.0,55.0,93,30.25,9.0,Calm,Calm,-,N/A,,Clear,0,2013-06-22 09:53:00
6:53 AM,62.1,57.9,86,30.24,10.0,Calm,Calm,-,N/A,,Clear,0,2013-06-22 10:53:00
7:53 AM,66.0,57.9,75,30.24,10.0,SSE,4.6,-,N/A,,Clear,150,2013-06-22 11:53:00
8:53 AM,71.1,55.9,59,30.24,10.0,Variable,3.5,-,N/A,,Clear,0,2013-06-22 12:53:00
9:53 AM,75.0,55.0,50,30.24,10.0,SW,4.6,-,N/A,,Clear,220,2013-06-22 13:53:00
10:42 AM,77.0,55.4,47,30.25,10.0,South,8.1,-,N/A,,Partly Cloudy,180,2013-06-22 14:42:00
10:53 AM,78.1,55.9,46,30.25,10.0,Variable,5.8,-,N/A,,Clear,0,2013-06-22 14:53:00
11:53 AM,79.0,55.9,45,30.25,10.0,Variable,6.9,-,N/A,,Clear,0,2013-06-22 15:53:00
12:53 PM,81.0,57.9,45,30.22,10.0,South,10.4,-,N/A,,Clear,170,2013-06-22 16:53:00
1:53 PM,82.0,59.0,45,30.21,10.0,South,10.4,-,N/A,,Clear,180,2013-06-22 17:53:00
2:53 PM,82.0,57.0,42,30.19,10.0,South,15.0,18.4,N/A,,Clear,180,2013-06-22 18:53:00
3:53 PM,82.0,55.9,41,30.17,10.0,South,15.0,20.7,N/A,,Clear,190,2013-06-22 19:53:00
4:53 PM,79.0,57.9,48,30.16,10.0,South,12.7,19.6,N/A,,Clear,170,2013-06-22 20:53:00
5:53 PM,75.9,57.9,54,30.15,10.0,SSW,8.1,17.3,N/A,,Clear,200,2013-06-22 21:53:00
6:53 PM,73.9,57.0,55,30.14,10.0,South,11.5,-,N/A,,Clear,170,2013-06-22 22:53:00
7:53 PM,72.0,57.0,59,30.14,10.0,SSE,9.2,-,N/A,,Clear,160,2013-06-22 23:53:00
8:53 PM,70.0,57.9,65,30.15,10.0,South,6.9,-,N/A,,Clear,170,2013-06-23 00:53:00
9:53 PM,68.0,59.0,73,30.18,10.0,South,4.6,-,N/A,,Clear,170,2013-06-23 01:53:00
10:53 PM,66.0,57.9,75,30.18,10.0,South,4.6,-,N/A,,Clear,180,2013-06-23 02:53:00
11:53 PM,64.0,57.9,80,30.19,10.0,Calm,Calm,-,N/A,,Clear,0,2013-06-23 03:53:00